This is the latest recevied weather packets stored in our database for station/object WP3XM. If no packets are shown the sender has not sent any weather packets the latest 10 day(s).
| Time | Temp. | Humidity | Pressure | Rain* | Wind** | Luminosity | Snow |
|---|---|---|---|---|---|---|---|
| 1778071075 | 26.67° C | 83% | 1019.9 hPa | 0 mm | - | 110 W/m² | - |
| 1778070773 | 26.67° C | 82% | 1020 hPa | 0 mm | - | 460 W/m² | - |
| 1778070470 | 26.67° C | 83% | 1019.9 hPa | 0 mm | - | 159 W/m² | - |
| 1778070167 | 26.67° C | 83% | 1019.8 hPa | 0 mm | - | 242 W/m² | - |
| 1778069865 | 26.67° C | 83% | 1020 hPa | 0 mm | - | 130 W/m² | - |
| 1778069562 | 27.22° C | 82% | 1019.9 hPa | 0 mm | - | 217 W/m² | - |
| 1778069259 | 27.22° C | 84% | 1019.7 hPa | 0 mm | - | 757 W/m² | - |
| 1778068957 | 27.22° C | 83% | 1019.8 hPa | 0 mm | - | 121 W/m² | - |
| 1778068654 | 26.11° C | 87% | 1019.7 hPa | 0 mm | - | 472 W/m² | - |
| 1778068353 | 26.11° C | 86% | 1019.8 hPa | 0 mm | - | 144 W/m² | - |
| 1778068050 | 26.67° C | 85% | 1019.7 hPa | 0 mm | - | 82 W/m² | - |
| 1778067747 | 26.67° C | 85% | 1019.6 hPa | 0 mm | - | 165 W/m² | - |
| 1778067446 | 26.67° C | 85% | 1019.7 hPa | 0 mm | - | 112 W/m² | - |
| 1778067143 | 26.67° C | 85% | 1019.5 hPa | 0 mm | - | 128 W/m² | - |
| 1778066839 | 26.67° C | 86% | 1019.5 hPa | 0 mm | - | 94 W/m² | - |
| 1778066537 | 26.11° C | 88% | 1019.4 hPa | 0 mm | - | 83 W/m² | - |
| 1778066234 | 26.11° C | 89% | 1019.4 hPa | 0 mm | - | 89 W/m² | - |
| 1778065932 | 26.11° C | 89% | 1019.6 hPa | 0 mm | - | 55 W/m² | - |
| 1778065628 | 26.11° C | 90% | 1019.5 hPa | 0 mm | - | 71 W/m² | - |
| 1778065326 | 25.56° C | 92% | 1019.2 hPa | 0 mm | - | 72 W/m² | - |
| 1778065023 | 25.56° C | 92% | 1019.4 hPa | 0 mm | - | 92 W/m² | - |
| 1778064720 | 25° C | 93% | 1019.3 hPa | 0 mm | - | 95 W/m² | - |
| 1778064418 | 25° C | 93% | 1019.2 hPa | 0 mm | - | 40 W/m² | - |
| 1778064115 | 24.44° C | 94% | 1019.3 hPa | 0 mm | - | 47 W/m² | - |
| 1778063812 | 24.44° C | 94% | 1019.4 hPa | 0 mm | - | 82 W/m² | - |
* Rain latest hour (hover to see other rain measurements)
** Current wind speed in m/s (hover to see current wind gust speed)